Showing default

LEMUR 2 PETERG, 42841

Orbit data source: Space-Track

LEMUR 2 PETERG, 42841 is a payload satellite owned by Spire (US) in SSO that was launched on Fri, 14 Jul 2017 UTC via a SOYUZ-2-1A launch vehicle from the Tyuratam Missile And Space Complex (TTMTR). Payload-class satellites include a variety of spacecraft equipped with specific instruments for various scientific and technological missions. These include communications satellites like Starlink; space stations such as the ISS; scientific satellites like the Hubble; Earth observation satellites from companies like Planet Labs, Umbra, and HawkEye 360; GPS; miniature CubeSats for education and research; and military/defense satellites.

Loading next visibility...
Identifier
42841, 2017-042S
Orbit
SSO
Country
Flag of USUS
Related business
Manufacturer
Spire/Glasgow
Mission
Operational Commercial Com/MetRO
Bus & Motor
CUBESAT 3U, Unknown motor
Mass
4 kg wet, 4 kg dry
Launch date (UTC)
2017-07-14 (8 years ago)
Launch vehicle
SOYUZ-2-1A
Launch site
Tyuratam Missile And Space Complex (TTMTR)
Object type
Payload
Rocket body
Debris
Shape & HBR
Box, 0.3 m
Radar Cross Section
0.093 m², Small (<0.1 m²)

Expand to show TLE details & history
Last TLE update: 23 hours ago

TLE from 23 hours ago
0 LEMUR 2 PETERG
1 42841U 17042S   25261.21532425  .00016817  00000-0  75742-3 0  9994
2 42841  97.3956  83.4045 0004200 211.4620 148.6365 15.21126417446913
Epoch: 2025-09-18T05:10Z
TLE epoch observation values (Epoch: 2025-09-18T05:10:04.015Z)
Latitude
-0.00002°
Longitude
8.50765°
Altitude
508.002 km
Speed
7.609 km/s
True Right ascension
05h 33m 37s
True Declination
0° 00' 00"
Sunlit
Object was in daylight at epoch
Visualization orbit readout
Latitude
Unknown
Longitude
Unknown
Altitude
Unknown
Speed
Unknown
Apparent Right ascension
Unknown
Apparent Declination
Unknown
Sunlit
N/A
Visualization observer readout
Local Sidereal Time
20:53:33
Azimuth
Unknown
Elevation
Unknown
Doppler factor
Unknown
Orbital elements
Apogee altitude
502.294 km
Perigee altitude
496.517 km
Semi-major axis
6,877.543 km
Eccentricity
0.00042
Inclination
97.3956°
RAAN
83.4045°
Arg. of periapsis
211.462°
True anomaly
148.66154°
Mean anomaly
148.6365°
Eccentric anomaly
148.64902°
Mean motion
3.80534 °/min
Orbital period
94.6 mins
BSTAR
0.00075742
Loading maneuver chart data...
Computing Atmospheric mass density...

Documentation

Showing up to 5 results
|